User: anonymous
Location: Unspecified
(0.0000°N, 0.0000°E)
Time: 21:30:22
(UTC+00:00)
Language:

USA 247 - Orbit

View from above orbital plane
View from above orbital plane
View from above satellite
View from above satellite

Ground track
Ground track

The orbit data is extracted from the following two-line orbital elements,

1 39462U 13072A   14255.85911189 0.00000000  00000-0  00000-0 0    09
2 39462 123.0062  16.1720 0005999  51.9359 308.0641 13.41436091    05
Epoch (UTC): 12 September 2014 20:37:07
Eccentricity: 0.0005999
inclination: 123.0062°
perigee height: 1099 km
apogee height: 1108 km
right ascension of ascending node: 16.1720°
argument of perigee: 51.9359°
revolutions per day: 13.41436091
mean anomaly at epoch: 308.0641°
orbit number at epoch: 0

The dashed part of the orbit path shows where the satellite is in the earth's shadow,  

DLR